STARLINK-32797, 62843

Orbit data source: Space-Track

STARLINK-32797, 62843 is a payload satellite owned by SpaceX/Seattle (US) in LEO that was launched on Mon, 27 Jan 2025 UTC via an FALCON 9 launch vehicle from the Air Force Eastern Test Range (AFETR). Payload-class satellites include a variety of spacecraft equipped with specific instruments for various scientific and technological missions. These include communications satellites like Starlink; space stations such as the ISS; scientific satellites like the Hubble; Earth observation satellites from companies like Planet Labs, Umbra, and HawkEye 360; GPS; miniature CubeSats for education and research; and military/defense satellites.

Loading next visibility...
Identifier
62843, 2025-019Q
Orbit
LEO
Country
Flag of USUS
Related business
Manufacturer
SpaceX/Seattle
Mission
Operational Commercial Communications
Bus & Motor
STARLINK V2M, Unknown motor
Mass
730 kg wet, ~700 kg dry
Launch date (UTC)
2025-01-27 (9 months ago)
Launch vehicle
FALCON 9
Launch site
Air Force Eastern Test Range (AFETR)
Object type
Payload
Rocket body
Debris
Shape & HBR
Box + 2 Pan, 17.7 m
Radar Cross Section
33.884 m², Large (>1 m²)

Expand to show TLE details & history
Last TLE update: 1 day ago

TLE from 1 day ago
0 STARLINK-32797
1 62843U 25019Q   25286.45207963  .00035026  00000-0  12744-2 0  9995
2 62843  42.9984 200.4278 0002237 280.8901  79.1699 15.27628660 39732
Epoch: 2025-10-13T10:50Z
TLE epoch observation values (Epoch: 2025-10-13T10:50:59.680Z)
Latitude
0.00001°
Longitude
15.42449°
Altitude
482.391 km
Speed
7.626 km/s
True Right ascension
13h 21m 42s
True Declination
0° 00' 00"
Sunlit
Object was in daylight at epoch
Visualization orbit readout
Latitude
Unknown
Longitude
Unknown
Altitude
Unknown
Speed
Unknown
Apparent Right ascension
Unknown
Apparent Declination
Unknown
Sunlit
N/A
Visualization observer readout
Local Sidereal Time
08:47:48
Azimuth
Unknown
Elevation
Unknown
Doppler factor
Unknown
Orbital elements
Apogee altitude
486.384 km
Perigee altitude
483.314 km
Semi-major axis
6,862.986 km
Eccentricity
0.00022
Inclination
42.9984°
RAAN
200.4278°
Arg. of periapsis
280.8901°
True anomaly
79.19508°
Mean anomaly
79.1699°
Eccentric anomaly
79.18249°
Mean motion
3.81745 °/min
Orbital period
94.3 mins
BSTAR
0.0012744
Loading maneuver chart data...
Computing Atmospheric mass density...
Loading historical data...
Loading historical data...
Loading historical data...
Loading historical data...
Loading historical data...
Loading historical data...
Loading historical data...

Documentation

Showing up to 5 results
|